Florence, SC

4:58 AM EST on February 21, 2017 (GMT -0500)
Florence Regional

Weather History for KFLO - March, 2013

Change the Weather History Date:

Sunday, March 31, 2013

  Actual Average Record
Temperature  
Mean Temperature 64 °F 60 °F  
Max Temperature 77 °F 72 °F 88 °F (1968)
Min Temperature 51 °F 47 °F 24 °F (1964)
Degree Days  
Heating Degree Days 1 7  
Month to date heating degree days 464 309  
Since 1 July heating degree days 2211 2376  
Cooling Degree Days 0 1  
Month to date cooling degree days 8 18  
Year to date cooling degree days 29 24  
Growing Degree Days 13 (Base 50)    
Moisture  
Dew Point 52 °F    
Average Humidity 69    
Maximum Humidity 97    
Minimum Humidity 41    
Precipitation  
Precipitation 0.19 in 0.10 in 1.80 in (1961)
Month to date precipitation 2.49 3.33  
Year to date precipitation 9.01 9.48  
Sea Level Pressure  
Sea Level Pressure 29.94 in    
Wind  
Wind Speed 9 mph (SSW)    
Max Wind Speed 23 mph    
Max Gust Speed 30 mph    
Visibility 9 miles    
Events Rain    
T = Trace of Precipitation, MM = Missing Value Source: NWS Daily Summary

Daily Weather History Graph

Daily Weather History Graph

Search for Another Location

Airport or City:

Trip Planner

Search our weather history database for the weather conditions in past years. The results will help you decide how hot, cold, wet, or windy it might be!

Date:

Astronomy

Mar. 31, 2013 Rise Set
Actual Time 7:07 AM EDT 7:39 PM EDT
Civil Twilight 6:42 AM EDT 8:04 PM EDT
Nautical Twilight 6:12 AM EDT 8:34 PM EDT
Astronomical Twilight 5:42 AM EDT 9:04 PM EDT
Moon No Moon Rise 10:04 AM EDT (3/31)
Length of Visible Light 13h 22m
Length of Day
12h 31m
Waning Gibbous, 78% of the Moon is Illuminated
Mar 31
Waning Gibbous
Apr 3
Last Quarter
Apr 10
New
Apr 18
First Quarter
Apr 25
Full

Hourly Weather History & Observations

Time (EDT) Temp. Dew Point Humidity Pressure Visibility Wind Dir Wind Speed Gust Speed Precip Events Conditions
12:53 AM 51.1 °F 45.0 °F 80% 30.09 in 10.0 mi ESE 4.6 mph - N/A   Clear
1:53 AM 51.1 °F 45.0 °F 80% 30.06 in 10.0 mi SE 5.8 mph - N/A   Partly Cloudy
2:53 AM 52.0 °F 46.0 °F 80% 30.04 in 10.0 mi ESE 3.5 mph - N/A   Overcast
3:53 AM 52.0 °F 48.0 °F 86% 30.02 in 9.0 mi East 4.6 mph - 0.01 in Rain Light Rain
4:53 AM 51.1 °F 48.9 °F 92% 30.00 in 9.0 mi SE 3.5 mph - 0.02 in Rain Light Rain
5:53 AM 52.0 °F 48.9 °F 89% 29.99 in 7.0 mi SSE 4.6 mph - 0.00 in Rain Light Rain
6:53 AM 53.1 °F 50.0 °F 89% 29.99 in 7.0 mi SSW 4.6 mph - 0.01 in Rain Light Rain
7:53 AM 55.0 °F 52.0 °F 89% 29.99 in 10.0 mi SSW 6.9 mph - 0.01 in   Overcast
8:53 AM 57.9 °F 53.1 °F 84% 29.99 in 10.0 mi SSW 6.9 mph - 0.00 in   Overcast
9:53 AM 63.0 °F 53.1 °F 70% 29.98 in 10.0 mi SSW 13.8 mph 21.9 mph N/A   Overcast
10:53 AM 64.0 °F 52.0 °F 65% 29.97 in 10.0 mi SW 13.8 mph - N/A   Overcast
11:53 AM 68.0 °F 53.1 °F 59% 29.96 in 10.0 mi SW 17.3 mph 24.2 mph N/A   Mostly Cloudy
12:53 PM 71.1 °F 54.0 °F 55% 29.94 in 10.0 mi WSW 16.1 mph 21.9 mph N/A   Scattered Clouds
1:53 PM 73.0 °F 54.0 °F 51% 29.91 in 10.0 mi SW 17.3 mph 25.3 mph N/A   Scattered Clouds
2:53 PM 73.0 °F 53.1 °F 49% 29.88 in 10.0 mi SW 13.8 mph 25.3 mph N/A   Overcast
3:53 PM 73.0 °F 52.0 °F 48% 29.87 in 10.0 mi SW 13.8 mph 26.5 mph N/A   Mostly Cloudy
4:53 PM 75.0 °F 50.0 °F 41% 29.85 in 10.0 mi WSW 17.3 mph 21.9 mph N/A   Mostly Cloudy
5:53 PM 75.0 °F 53.1 °F 46% 29.84 in 10.0 mi SW 9.2 mph - 0.00 in   Partly Cloudy
6:53 PM 73.0 °F 52.0 °F 48% 29.85 in 10.0 mi SW 8.1 mph - N/A   Mostly Cloudy
7:53 PM 63.0 °F 57.9 °F 84% 29.89 in 4.0 mi West 16.1 mph 28.8 mph 0.11 in Rain Rain
8:53 PM 61.0 °F 59.0 °F 93% 29.88 in 10.0 mi Calm Calm - 0.03 in   Overcast
9:53 PM 61.0 °F 59.0 °F 93% 29.89 in 9.0 mi South 8.1 mph - N/A   Scattered Clouds
10:53 PM 60.1 °F 57.9 °F 93% 29.90 in 10.0 mi SW 4.6 mph - N/A   Mostly Cloudy
11:53 PM 60.1 °F 57.0 °F 90% 29.89 in 10.0 mi South 3.5 mph - N/A   Mostly Cloudy